Location: Ceske Budejovice
(48.9830°N, 14.4670°E)
Time: 21:20:30
(UTC+02:00)

DX 1 - Pass Details

Date: 20 August 2019
Orbit: 619 x 631 km, 98.4° (Epoch: 19 October)

Event Time Altitude Azimuth Distance (km) Brightness Sun altitude
Rises 04:39:19 0° 174° (S) 2,882 ? -12.6°
Reaches altitude 10° 04:41:31 10° 178° (S) 1,982 ? -12.3°
Maximum altitude 04:45:46 59° 258° (WSW) 718 ? -11.7°
Drops below altitude 10° 04:50:04 10° 339° (NNW) 2,001 ? -11.1°
Sets 04:52:18 0° 343° (NNW) 2,914 ? -10.8°
